This is the latest recevied weather packets stored in our database for station/object K4DNM. If no packets are shown the sender has not sent any weather packets the latest 10 day(s).
| Time | Temp. | Humidity | Pressure | Rain* | Wind** | Luminosity | Snow |
|---|---|---|---|---|---|---|---|
| 1777731620 | 11.11° C | 98% | 1012.3 hPa | 1.02 mm | - | 39 W/m² | - |
| 1777731320 | 11.67° C | 98% | 1012.1 hPa | 1.02 mm | - | 39 W/m² | - |
| 1777731158 | 11.67° C | 98% | 1012 hPa | 0.76 mm | - | 43 W/m² | - |
| 1777730721 | 11.67° C | 98% | 1011.8 hPa | 0.76 mm | - | 54 W/m² | - |
| 1777730482 | 11.67° C | 98% | 1011.7 hPa | 0.76 mm | - | 49 W/m² | - |
| 1777730120 | 11.67° C | 98% | 1011.7 hPa | 0.76 mm | - | 43 W/m² | - |
| 1777729820 | 11.67° C | 98% | 1011.5 hPa | 0.51 mm | - | 41 W/m² | - |
| 1777729521 | 11.67° C | 98% | 1011.4 hPa | 0.76 mm | - | 39 W/m² | - |
| 1777729217 | 11.67° C | 98% | 1011.4 hPa | 0.76 mm | - | 44 W/m² | - |
| 1777728909 | 11.67° C | 98% | 1011.6 hPa | 0.76 mm | - | 71 W/m² | - |
| 1777728610 | 11.67° C | 98% | 1011.5 hPa | 1.02 mm | - | 95 W/m² | - |
| 1777728357 | 11.67° C | 98% | 1011.5 hPa | 1.02 mm | - | 82 W/m² | - |
| 1777728069 | 11.11° C | 98% | 1011.5 hPa | 1.02 mm | - | 79 W/m² | - |
| 1777727707 | 11.11° C | 98% | 1011.4 hPa | 1.27 mm | - | 69 W/m² | - |
| 1777727551 | 11.11° C | 98% | 1011.4 hPa | 1.27 mm | - | 52 W/m² | - |
| 1777727107 | 11.11° C | 98% | 1011.3 hPa | 1.52 mm | - | 63 W/m² | - |
| 1777726807 | 11.11° C | 98% | 1011.2 hPa | 1.52 mm | - | 58 W/m² | - |
| 1777726508 | 11.11° C | 98% | 1011.2 hPa | 1.52 mm | - | 63 W/m² | - |
| 1777726208 | 11.11° C | 98% | 1011.2 hPa | 1.52 mm | - | 52 W/m² | - |
| 1777725899 | 11.11° C | 97% | 1011.1 hPa | 1.52 mm | - | 59 W/m² | - |
| 1777725599 | 11.11° C | 97% | 1011 hPa | 1.78 mm | - | 44 W/m² | - |
| 1777725299 | 11.11° C | 97% | 1011 hPa | 1.78 mm | - | 44 W/m² | - |
| 1777724998 | 11.11° C | 97% | 1011 hPa | 1.78 mm | - | 39 W/m² | - |
| 1777724695 | 11.11° C | 97% | 1010.9 hPa | 2.03 mm | - | 37 W/m² | - |
| 1777724383 | 11.11° C | 97% | 1010.9 hPa | 2.29 mm | - | 34 W/m² | - |
* Rain latest hour (hover to see other rain measurements)
** Current wind speed in m/s (hover to see current wind gust speed)